sat.trackr.live / text

‹ back to catalog

STARLINK-11107 [DTC]

NORAD 59708 · 2024-088A

PAYLOAD ACTIVE UNKNOWN

§ Identity

Operator
Country
US
Launch date
2024-05-10
Launch site
AFWTR
Launch vehicle
Mass (kg)
RCS (m²)

Purposes: comms

External: N2YO · Heavens-Above · Gunter

§ Orbital elements

Epoch: 2026-05-24T21:12:06.969600Z

Period
91.74 min
Inclination
53.1583°
Eccentricity
0.0001062
Mean motion
15.69711221 rev/d
Perigee alt
359.0 km
Apogee alt
360.4 km
Semi-major
6,737.9 km
B*
2.0368e-5
RAAN
310.3572°
Arg perigee
91.7941°
Mean anomaly
268.3199°
Rev number
11,822

§ Raw data

STARLINK-11107 [DTC]1 59708U 24088A   26144.88341400  .00001880  00000+0  20368-4 0  99952 59708  53.1583 310.3572 0001062  91.7941 268.3199 15.69711221118224

JSON: /api/v1/satellites/59708 · /tle

For live sub-satellite position, see the globe view (requires WebGL).

§ Visibility from observer

Set your observer location to see the next 7 days of passes ≥ 10°. The values pass through the URL so the page stays shareable.

No JS? Fill the form by hand. The geolocation button needs JavaScript.